Weather in Dharamsala

India     32°12′47″N   76°19′21″E
temp.,
°C
wind,
m/s
gust,
m/s
humid.,
%
clouds,
%
prec.,
mm/h
press.,
hPa
HPBL,
m
14 april, wed
wed1423:30+16ne543336 0.0 101652
02:30+16ne65335 0.0 101454
05:30+15ne65325 0.0 101459
08:30+23ese012039 0.0 1013610
11:30+26sw551795 0.0 10123147
14:30+27wsw6516100 0.0 10104017
17:30+24nnw34245 0.0 10091469
20:30+16ne6544100 0.3 101359
15 april, thu
thu1523:30+16ne653599 0.3 101464
02:30+16ne6531100 0.0 101262
05:30+16ne543040 0.1 101253
08:30+23ne121881 0.0 1012455
11:30+26sw5315100 0.0 10123531
14:30+27wsw431499 0.0 10094201
17:30+21n7729100 0.2 1010629
20:30+17ne6538100 0.1 101284
16 april, fri
fri1623:30+17ne6542100 0.3 101260
02:30+15ne7645100 0.3 101182
05:30+15ne653899 0.3 101160
08:30+23ene1120100 0.0 1010579
11:30+27ssw5515100 0.0 10103792
14:30+26ssw3616100 0.0 10083776
17:30+21n2231100 0.3 1009414
20:30+14ne6662100 4.2 1013122
17 april, sat
sat1723:30+15e2361100 4.5 101383
02:30+13ne4472100 2.9 1013119
05:30+13ne4573100 8.4 1012122
08:30+18se4750100 1.6 1013892
11:30+20s5744100 3.8 10142180
14:30+16ene55593 2.3 1011182
17:30+14ene6873100 6.5 1013297
20:30+12ne6571100 7.3 101677
18 april, sun
sun1823:30+12ne6562100 7.6 101656
02:30+12ne6566100 0.6 101669
05:30+11ne6672100 2.1 1018120
08:30+13ne7866100 1.4 1017213
11:30+21sw233750 2.6 10151441
14:30+22sw43352 0.3 10122343
17:30+20wsw32390 0.7 10111535
20:30+14ne54460 0.1 101452